User: anonymous   Login
Location: Unspecified
(0.0000°N, 0.0000°E)
Time: 07:38:01
(UTC+00:00)
Language:

TYVAK-61C - Orbit

View from above orbital plane
View from above orbital plane
View from above satellite
View from above satellite

Ground track
Ground track

The orbit data is extracted from the following two-line orbital elements,

1 43144U 18004AK  20223.78648339 +.00001477 +00000-0 +60285-4 0  9990
2 43144 097.4472 296.4776 0006634 224.5274 135.5432 15.25997788143436
Epoch (UTC): 10 August 2020 18:52:32
Eccentricity: 0.0006634
inclination: 97.4472°
perigee height: 483 km
apogee height: 492 km
right ascension of ascending node: 296.4776°
argument of perigee: 224.5274°
revolutions per day: 15.25997788
mean anomaly at epoch: 135.5432°
orbit number at epoch: 14343

The dashed part of the orbit path shows where the satellite is in the earth's shadow,  

DLR